{"data":{"norad_id":49414,"intl_designator":"2021-104G","name":"STARLINK-3146","alt_names":[],"object_type":"PAYLOAD","status":"ACTIVE","operator":null,"country":"US","launch_date":"2021-11-13","launch_site_code":"AFETR","launch_vehicle":null,"mission":null,"orbit_class":"UNKNOWN","rcs_meters":null,"size_class":null,"mass_kg":null,"dimensions":null,"purposes":["comms"],"wikipedia_slug":null,"has_3d_model":false,"image_url":null,"decayed_at":null,"tle_current":{"epoch":"2026-05-25T05:21:03.305952Z","epoch_age_seconds":55862,"freshness":"FRESH","line1":"1 49414U 21104G   26145.22295493 -.00011243  00000+0 -69090-3 0  9993","line2":"2 49414  53.2154 245.5479 0001545 114.5285 245.5868 15.08761031250187","mean_motion":15.08761031,"eccentricity":0.0001545,"inclination_deg":53.2154,"raan_deg":245.5479,"arg_perigee_deg":114.5285,"mean_anomaly_deg":245.5868,"bstar":-0.0006909,"rev_number":25018,"period_min":95.442549907693,"perigee_km":538.9159263187,"apogee_km":541.05362594753,"semimajor_km":6918.1217761331,"source":"CELESTRAK","updated_at":"2026-05-25T13:38:16.795394Z"}}}